Location: Yucca Valley
(34.1140°N, 116.4310°W)
Time: 07:02:18
(UTC-07:00)

Daily predictions for brighter satellites

Satellite Brightness Start Highest point End
(mag) Time Altitude Azimuth Time Altitude Azimuth Time Altitude Azimuth
HJ-1C 4.4 19:23:44 10° SE 19:26:42 29° ENE 19:29:42 10° NNE
Cosmos 2344 4.2 19:21:07 10° SW 19:28:43 63° NW 19:36:58 10° NNE
SJ-6B 2.8 19:27:50 10° SSE 19:31:29 57° ENE 19:35:09 10° N
Yuri Rocket 4.3 19:28:21 10° WSW 19:32:35 32° SSW 19:36:19 10° SE
H-2A R/B 3.8 19:29:52 10° SE 19:33:11 27° ENE 19:36:33 10° NNE
Cosmos 2297 3.8 19:30:21 10° S 19:35:56 61° ESE 19:41:35 10° NNE
SL-27 R/B 2.9 19:32:38 10° NNW 19:36:13 70° WSW 19:39:50 10° S
Resurs 01 Rocket 2.3 19:33:44 10° SE 19:37:41 33° ENE 19:41:37 10° N
ISS -3.8 19:37:16 10° SW 19:40:30 83° NW 19:43:47 10° NE
Timation 1 Rocket 4.5 19:42:19 10° SSW 19:48:19 82° WNW 19:54:21 10° NNE
FengYun 1-2 T 4.2 19:44:20 10° SSE 19:49:49 67° ENE 19:55:25 10° N
FREGAT/IRIS 3.5 19:48:31 10° S 19:51:30 53° W 19:54:31 10° NNW
Cosmos 2082 Rocket 2.8 19:46:24 10° N 19:51:41 38° ENE 19:56:36 11° SE
Cosmos 1605 Rocket 4.1 19:47:02 10° S 19:53:18 88° W 19:59:41 10° N
H-II Stage 2 2.1 19:53:35 10° SW 19:55:22 25° S 19:56:26 18° SE
Cosmos 2100 Rocket 4.4 19:51:41 10° SSE 19:57:27 39° E 20:03:17 10° NNE
Cosmos 1271 Rocket 3.4 19:54:23 10° SSE 19:58:01 34° E 20:01:41 10° NNE
COSMOS 2487 3.2 19:55:29 10° N 19:58:45 33° ENE 20:00:44 19° ESE
Cosmos 1758 3.3 19:55:57 10° S 19:59:54 89° W 20:03:55 10° N
Delta 128 4.4 20:01:08 10° WSW 20:05:25 38° S 20:07:59 20° SE
Cosmos 1953 2.4 20:02:08 10° S 20:06:12 82° W 20:10:16 10° N
Cosmos 372 Rocket 3.9 20:02:54 10° SSW 20:08:00 89° WNW 20:13:10 10° NNE
Cosmos 1674 3.1 20:05:25 10° N 20:09:01 40° E 20:11:14 20° SE
Cosmos 1818 3.5 20:05:25 10° NNW 20:10:53 83° ENE 20:15:45 13° SSE
Cosmos 1269 Rocket 4.0 20:05:55 10° N 20:11:09 61° ENE 20:15:54 13° SSE
BREEZE-M DEB (TANK) 2.6 20:08:31 10° WSW 20:11:18 84° NW 20:19:14 10° NE
Aurora 2 Rocket 4.3 20:05:01 10° WSW 20:12:13 37° S 20:15:38 21° SE
Resurs 1-3 3.5 20:08:28 10° SSE 20:12:50 73° ENE 20:17:13 10° N
Cosmos 158 Rocket 4.1 20:10:07 10° N 20:15:11 55° ENE 20:18:58 18° SE
Meteor 1-4 Rocket 3.6 20:12:12 10° SSW 20:15:31 46° W 20:18:54 10° N
Cosmos 1408 Rocket 3.6 20:11:52 10° N 20:16:15 56° E 20:19:55 14° SSE
Cosmos 1939 Rocket 4.3 20:18:51 22° ENE 20:18:51 22° ENE 20:21:49 10° NNE
Cosmos 1802 Rocket 4.1 20:15:29 10° SSE 20:21:18 48° E 20:27:10 10° NNE
Helios 1B rocket 2.3 20:18:28 10° NNE 20:22:33 62° E 20:26:36 10° S
USA 215 3.4 20:19:34 10° NE 20:25:49 47° SE 20:32:03 10° SSW
Cosmos 1842 Rocket 4.2 20:27:30 34° E 20:27:30 34° E 20:31:15 10° NNE
Lacrosse 5 rocket 2.2 20:26:22 10° NNW 20:29:45 28° NE 20:29:53 28° NE
Spot 2 Rocket 3.8 20:26:50 10° S 20:31:54 66° WSW 20:36:59 10° NNW
CZ-2D R/B 3.5 20:29:14 12° S 20:32:43 70° WSW 20:36:36 10° NNW
Cosmos 1076 Rocket 4.2 20:31:38 10° NNW 20:35:46 54° W 20:39:54 10° S
Delta 168 4.3 20:35:17 10° WSW 20:38:12 20° S 20:38:12 20° S
Abrixas 3.2 20:35:44 10° WNW 20:38:13 43° WSW 20:38:13 43° WSW
Cosmos 2061 Rocket 3.9 20:32:17 10° S 20:38:39 76° E 20:45:05 10° N
Helios 1A 2.8 20:39:35 38° SSE 20:41:08 84° ENE 20:45:19 10° N
Cosmos 1459 Rocket 3.9 20:36:38 10° S 20:42:54 90° E 20:49:07 10° N
ALOS 4.5 20:41:17 10° SSW 20:45:05 25° W 20:48:54 10° NW
Timation 2 Rocket 3.8 20:42:01 10° NNW 20:48:16 88° WSW 20:51:22 31° SSE
PSLV R/B 4.5 20:46:02 10° WSW 20:47:54 32° SW 20:47:54 32° SW
Envisat 2.9 20:48:55 50° SE 20:50:05 66° ENE 20:55:08 10° N
Cosmos 2173 Rocket 4.0 20:45:08 10° S 20:51:18 79° W 20:57:34 10° N
Gblst 52 Del rocket 4.1 20:45:15 10° SW 20:51:25 87° SE 20:54:40 27° NE
Cosmos 1733 4.3 20:48:53 10° SSW 20:52:34 44° W 20:56:18 10° N
GPS 2-05 Rocket1 3.4 20:50:45 10° W 20:53:50 57° NW 20:53:50 57° NW
Cosmos 1470 4.1 20:51:09 10° SSW 20:54:54 40° W 20:58:39 10° N
Cosmos 1833 Rocket 3.0 20:49:40 10° NNW 20:55:14 65° WSW 20:58:19 27° S
DASH 3.4 20:42:57 10° W 20:55:40 54° S 20:56:26 48° SSE
Meteor 2-17 Rocket 4.3 20:52:42 10° S 20:58:51 84° E 21:05:01 10° N
SeaSat 1 3.9 20:55:07 10° S 20:59:27 33° WSW 21:03:54 10° NW
ERS-1 Rocket 3.7 21:03:16 38° NE 21:03:16 38° NE 21:06:55 10° N
ATLAS 5 CENTAUR R/B 4.0 21:00:32 10° WSW 21:04:23 25° NW 21:08:29 10° N
H-2A R/B 4.5 21:11:38 10° NNE 21:11:38 10° NNE 21:11:43 10° NNE
OAO 2 Rocket 3.4 21:04:27 10° WSW 21:09:17 70° SSW 21:09:17 70° SSW
Cosmos 1340 Rocket 3.9 21:09:54 10° NNW 21:13:41 42° W 21:13:49 41° W
Resurs 01 Rocket 4.3 21:11:13 10° SW 21:14:11 18° W 21:17:09 10° NW
ISS -0.6 21:16:26 10° NW 21:17:25 11° NNW 21:18:09 10° NNW
Cosmos 2016 Rocket 4.4 21:17:25 10° SSW 21:23:33 60° W 21:29:37 10° N
Cosmos 1725 Rocket 4.0 21:31:58 56° SSW 21:33:16 74° W 21:39:28 10° N
Cosmos 2082 Rocket 4.1 21:31:02 10° NW 21:35:28 24° WSW 21:38:32 15° SW
USA 215 4.2 22:02:37 10° NNE 22:08:43 43° NW 22:14:47 10° WSW
Cosmos 2369 Rocket 4.3 22:25:00 21° NNW 22:25:00 21° NNW 22:27:08 10° N
